Regional Weather Roundup
Issued by NWS

Home | Current Version | Previous Version | Text Only | Print | Product List | Glossary On
Versions: 1 2 3 4 5 6 7 8 9 10 11 12 13 14 15 16 17 18 19 20 21 22 23 24 25 26 27 28 29 30 31 32 33 34 35 36 37 38 39 40 41 42 43 44 45 46 47 48 49 50
948
ASUS43 KMKX 090321
RWRWI

WISCONSIN REGIONAL WEATHER ROUNDUP
NATIONAL WEATHER SERVICE MILWAUKEE/SULLIVAN WI
900 PM CST MON FEB 08 2016

NOTE: "FAIR" INDICATES FEW OR NO CLOUDS BELOW 12,000 FEET WITH NO
SIGNIFICANT WEATHER AND/OR OBSTRUCTIONS TO VISIBILITY.

WIZ001-002-006>008-014>016-023>028-090400-
NORTHWEST WISCONSIN

CITY           SKY/WX    TMP DP  RH WIND       PRES   REMARKS
SUPERIOR ARPT  CLOUDY     9   1  67 N12       30.00S WCI  -5
ASHLAND        CLOUDY    11   6  81 NW12      29.91S HAZE    WCI  -3
HAYWARD        CLOUDY     9   2  73 VRB5      29.89S WCI   1
SIREN          CLOUDY    10   3  71 N14G24    29.95S WCI  -5
CUMBERLAND     FLURRIES  10   1  67 N16       29.89S WCI  -7
RICE LAKE      CLOUDY    10   3  71 NW10G18   29.91S WCI  -3
CHETEK         CLOUDY    10   4  74 MISG      29.90R
LADYSMITH      CLOUDY    11   4  75 NW15      29.87S WCI  -6
EAU CLAIRE     CLOUDY    12   5  73 NW9       29.89S HAZE    WCI   0
MENOMONIE      FLURRIES  13   6  71 NW14G20   29.91S WCI  -2
NEW RICHMOND   CLOUDY    12   4  71 N18G26    29.94S WCI  -6
OSCEOLA        FLURRIES  13   5  72 NW14G23   29.98S WCI  -3
$$

WIZ003>005-009-010-017-018-090400-
NORTH CENTRAL WISCONSIN

CITY           SKY/WX    TMP DP  RH WIND       PRES   REMARKS
MANITOWISH WTR LGT SNOW  11   8  87 NW7       29.76F WCI   0
ARBOR VITAE    LGT SNOW  13   9  84 NW7       29.76S VSB 1   WCI   2
WOODRUFF       LGT SNOW  13   9  84 NW7       29.76S VSB 1   WCI   2
RHINELANDER    LGT SNOW  12   6  77 NW8       29.75S WCI   0
EAGLE RIVER    LGT SNOW  12   6  78 NW7       29.73S WCI   1
LAND O LAKES   LGT SNOW  13   9  84 NW7       29.74S WCI   2
PHILLIPS       LGT SNOW   9   4  82 NW8       29.80S WCI  -4
TOMAHAWK       LGT SNOW  10   6  82 NW7       29.78S WCI   0
MEDFORD        CLOUDY    10   4  78 NW15      29.78S WCI  -7
MERRILL        FLURRIES  12   6  77 N8G16     29.79R WCI   1
$$

WIZ029-030-035-036-043>047-090400-
CENTRAL WISCONSIN

CITY           SKY/WX    TMP DP  RH WIND       PRES   REMARKS
WAUSAU         LGT SNOW  15   9  76 NW10G20   29.76F WCI   2
MOSINEE        LGT SNOW  14  12  92 N12       29.79R WCI   0
MARSHFIELD     LGT SNOW  12   5  73 NW15      29.79S WCI  -4
STEVENS POINT  LGT SNOW  14  10  83 NW7       29.79R WCI   4
WAUPACA        LGT SNOW  22  17  80 NW13      29.77S WCI  10
WAUTOMA        LGT SNOW  16  10  79 NW12      29.79S WCI   3
WISC RAPIDS    LGT SNOW  14   7  73 N14       29.81S WCI  -1
CAMP DOUGLAS   FLURRIES  14  14 100 NW12      29.83R WCI   0
$$

WIZ011>013-019>022-031-037>040-048>050-090400-
NORTHEAST WISCONSIN

CITY           SKY/WX    TMP DP  RH WIND       PRES   REMARKS
ANTIGO         LGT SNOW  13   8  82 NW10G20   29.73S WCI   0
SHAWANO        CLOUDY    21  14  73 NW12G17   29.77S WCI   9
OCONTO         CLOUDY    19  15  84 N7        29.76S WCI  10
STURGEON BAY   CLOUDY    19  10  68 N17G23    29.75S WCI   4
GREEN BAY      MIX PCPN  21  16  81 N12       29.75R WCI   9
MANITOWOC      LGT SNOW  23  19  86 N12       29.74R FOG     WCI  12
APPLETON       CLOUDY    19  14  79 NW12G17   29.72S WCI   7
CLINTONVILLE   CLOUDY    21  12  68 N10G17    29.76S WCI  10
OSHKOSH        LGT SNOW  20  15  81 NW12      29.74R WCI   8
$$

WIZ032>034-041-042-053>061-090400-
SOUTHWEST WISCONSIN

CITY           SKY/WX    TMP DP  RH WIND       PRES   REMARKS
LA CROSSE      LGT SNOW  15  10  80 NW13      29.89S WCI   1
SPARTA         LGT SNOW  14  10  82 NW9       29.87S WCI   2
VIROQUA        CLOUDY    12   9  87 NW13      29.82S WCI  -2
BOSCOBEL       LGT SNOW  16  10  77 NW6       29.88S WCI   7
PRAIRIE DU CHI MIX PCPN  16   9  76 NW10      29.89S WCI   3
PLATTEVILLE    PTCLDY    15  10  78 NW14G20   29.83R WCI   1
$$

WIZ056-057-062-063-064-067-068-090400-
SOUTH CENTRAL WISCONSIN

CITY           SKY/WX    TMP DP  RH WIND       PRES   REMARKS
REEDSBURG      LGT SNOW  14  10  82 NW8       29.82S WCI   3
BARABOO/DELLS  LGT SNOW  14   9  80 NW8       29.81S WCI   3
LONE ROCK      LGT SNOW  15   9  76 NW12      29.85S WCI   2
MINERAL POINT  FLURRIES  18  10  73 NW17      29.80S WCI   2
MADISON        FLURRIES  16   8  71 NW15G22   29.79R WCI   1
MIDDLETON      CLOUDY    18  11  74 NW14      29.80S WCI   4
WATERTOWN      LGT SNOW  19  16  88 NW14G22   29.76R WCI   5
MONROE         CLOUDY    19  12  73 NW13G21   29.77F WCI   7
JANESVILLE     CLOUDY    21  12  68 NW13      29.77S WCI   9
$$

WIZ051-052-058>065-066-070>072-090400-
SOUTHEAST WISCONSIN

CITY           SKY/WX    TMP DP  RH WIND       PRES   REMARKS
MILWAUKEE      LGT SNOW  22  17  81 NW20      29.72S FOG     WCI   7
WAUKESHA       LGT SNOW  19  16  86 NW13G18   29.74S WCI   7
MILWAUKEE/TIMM LGT SNOW  21  18  86 NW14      29.74S WCI   8
RACINE         LGT SNOW  23  18  81 NW12      29.73S WCI  12
BURLINGTON     LGT SNOW  20  15  84 NW10      29.74S WCI   8
KENOSHA        LGT SNOW  23  18  81 NW14      29.73S WCI  11
FOND DU LAC    FLURRIES  19  13  77 NW14      29.75R WCI   6
SHEBOYGAN      FLURRIES  24  19  81 NW9       29.72R WCI  14
WEST BEND      LGT SNOW  21  18  86 NW15      29.72S WCI   8
JUNEAU         LGT SNOW  17  13  85 NW14      29.76S WCI   3
$$

LSZ147-162-090400-
LAKE SUPERIOR

STATION/POSITION TIME  TEMP    WIND        PRES    WAVE
                       AIR SEA DIR/SP/G            HT/PER
                 (UTC) (F)     (DEG/KT/KT) (MB)    (FT/S)
DEVILS ISLAND    0300   14     350/ 23/ 28 1014.3R
PORT WING        0236   14     330/ 21/ 26 1014.2R
SAXON HARBOR     0240   16                 1011.9R
$$

LMZ867-665-643>646-090400-
LAKE MICHIGAN

STATION/POSITION TIME  TEMP    WIND        PRES    WAVE
                       AIR SEA DIR/SP/G            HT/PER
                 (UTC) (F)     (DEG/KT/KT) (MB)    (FT/S)
CHAMBERS ISLAND  0240   20     310/ 17/ 22 1007.5R
NORTHPORT PIER   0302   21     330/ 21     1007.1R
ALGOMA LAKESHORE 0211          330/ 17/ 24   N/A
KEWAUNEE LAKESHO 0200   23     340/ 10/ 14 1006.1R
SHEBOYGAN LAKESH 0300   26     340/ 15/ 19 1007.4S
PORT WASHINGTON  0200   25     280/  9/ 12 1007.5S
MILWAUKEE LAKESH 0210   24     300/ 16/ 20   N/A
KENOSHA   LAKESH 0300   23     300/ 12/ 18 1006.8S
$$

TC  - TEMPERATURE IN CELSIUS
VSB - VISIBILITY IN STATUTE MILES
WCI - WIND CHILL INDEX
HX  - HEAT INDEX





USA.gov is the U.S. government's official web portal to all federal, state and local government web resources and services.